User: anonymous   Login
Location: Unspecified
(0.0000°N, 0.0000°E)
Time: 06:52:11
(UTC+00:00)
Language:

NOSS 2-3 (C) - Orbit

View from above orbital plane
View from above orbital plane
View from above satellite
View from above satellite

Ground track
Ground track

The orbit data is extracted from the following two-line orbital elements,

1 23908U 96029C   21112.81727529 0.00000130  00000-0  46678-4 0    08
2 23908  63.3550  34.9399 0728090  24.5765 335.4235 13.40956312    07
Epoch (UTC): 22 April 2021 19:36:52
Eccentricity: 0.0728090
inclination: 63.3550°
perigee height: 561 km
apogee height: 1650 km
right ascension of ascending node: 34.9399°
argument of perigee: 24.5765°
revolutions per day: 13.40956312
mean anomaly at epoch: 335.4235°
orbit number at epoch: 0

The dashed part of the orbit path shows where the satellite is in the earth's shadow,  

DLR